Weather in Kommunar

Russia / Tyumen Oblast     56°34′00″N   65°32′11″E
temp.,
°C
wind,
m/s
gust,
m/s
humid.,
%
clouds,
%
prec.,
mm/h
press.,
hPa
HPBL,
m
23 april, fri
fri2323:00+9sse71461100 0.0 1034420
02:00+7sse6126495 0.0 1034313
05:00+6s41071100 0.0 1034227
08:00+8s51168100 0.0 1034371
11:00+11s5754100 0.0 1034736
14:00+14s7944100 0.0 10331591
17:00+13sw61049100 0.0 10321921
20:00+11s3657100 0.1 1032136
24 april, sat
sat2423:00+8sse41152100 0.1 1032352
02:00+7sse4953100 0.0 1030253
05:00+5sse4858100 0.0 1029204
08:00+7sse4754100 0.0 1028307
11:00+10sse3654100 0.0 10271082
14:00+9se6851100 0.0 10261074
17:00+11se6845100 0.0 10241608
20:00+9se51049100 0.0 1023349
25 april, sun
sun2523:00+7sse61152100 0.0 1022487
02:00+6ese3766100 0.0 1020217
05:00+6ese51061100 0.0 1019394
08:00+6ese5859100 0.0 1018448
11:00+10se6752100 0.0 10171273
14:00+13ese67405 0.0 10151576
17:00+15se453448 0.0 10142045
20:00+11se45505 0.0 101378
26 april, mon
mon2623:00+8s497895 0.0 1013205
02:00+6wsw511915 0.1 1013434
05:00+5sw411870 0.1 1014306
08:00+7wsw812594 0.0 10151077
11:00+8wsw8115994 0.2 10161470
14:00+10w8105263 0.1 10171771
17:00+12w6113747 0.1 10172513
20:00+8wsw4850100 0.0 1018156
27 april, tue
tue2723:00+7sw3757100 0.0 1018155
02:00+6sw3357100 0.0 101735
05:00+6ssw2256100 0.0 101619
08:00+8s4755100 0.0 1015465
11:00+9s3361100 0.0 1014936
14:00+11ese3350100 0.0 10121460
17:00+10se3354100 0.0 10101098
20:00+7sse3376100 0.0 101078